Flag for Sweden Weather past 2 weeks in Stockholm, Sweden

Now
43 °F

Passing clouds.


Feels Like: 43 °F
Forecast: 46 / 59 °F
Wind: 2 mph from North

Location: Stockholm Bromma Airport

Current Time: May 25, 2015 at 4:22:51 AM

Latest Report: May 25, 2015 at 3:50 AM


Visibility: N/A

Pressure: 29.83 "Hg

Humidity: 93%

Dew point: 41 °F

Location of StockholmLocation

Historic Weather in Stockholm — Graph

°F

Stockholm temperature yesterday

Maximum temperature yesterday: 63 °F (at 12:50 PM)
Minimum temperature yesterday: 41 °F (at 3:50 AM)
Average temperature yesterday: 55 °F

Past Weeks' High & Low Weather Summary

 TemperatureHumidityPressure
High63 °F (May 24, 12:50 PM)100% (May 10, 11:50 PM)30.21 "Hg (May 10, 11:50 PM)
Low30 °F (May 16, 3:20 AM)31% (May 23, 4:50 PM)29.39 "Hg (May 13, 4:50 AM)
Average48 °F73%29.82 "Hg
* Reported May 10 3:20 AM — May 25 3:20 AM, Stockholm, Weather by CustomWeather, © 2015

Note: Actual official high and low records may vary slightly from our data, if they occured in-between our weather recording intervals... More about our weather records

Advertising

Stockholm weather history for previous 24 hours

 ConditionsComfort  
Time TempWeatherWind HumidityBarometerVisibility
3:20 AM
Mon, May 25
43 °FQuite cool.2 mph93%29.83 "HgN/A
2:50 AM45 °FQuite cool.5 mph87%29.86 "HgN/A
2:20 AM43 °FQuite cool.3 mph93%29.86 "HgN/A
1:50 AM45 °FQuite cool.2 mph93%29.86 "HgN/A
1:20 AM46 °FCool.2 mph82%29.86 "HgN/A
12:50 AM46 °FCool.5 mph82%29.86 "HgN/A
12:20 AM50 °FCool.5 mph71%29.86 "HgN/A
11:20 PM
Sun, May 24
52 °FOvercast.6 mph72%29.86 "HgN/A
10:50 PM52 °FPassing clouds.7 mph67%29.86 "HgN/A
10:20 PM54 °FScattered clouds.7 mph63%29.86 "HgN/A
9:50 PM55 °FSunny.6 mph55%29.86 "Hg10 mi
9:20 PM57 °FSunny.8 mph51%29.86 "Hg10 mi
8:50 PM57 °FSunny.7 mph51%29.86 "Hg10 mi
8:20 PM57 °FSunny.6 mph51%29.86 "Hg10 mi
7:50 PM59 °FSunny.8 mph48%29.86 "Hg10 mi
7:20 PM63 °FSunny.2 mph37%29.86 "Hg10 mi
6:50 PM63 °FPassing clouds.5 mph37%29.86 "HgN/A
6:20 PM61 °FPassing clouds.6 mph39%29.86 "HgN/A
5:50 PM63 °FSunny.7 mph32%29.89 "Hg10 mi
5:20 PM63 °FPassing clouds.8 mph34%29.89 "HgN/A
4:50 PM63 °FPassing clouds.8 mph34%29.89 "HgN/A
4:20 PM63 °FPassing clouds.7 mph39%29.89 "HgN/A
3:50 PM63 °FPassing clouds.8 mph39%29.89 "HgN/A
3:20 PM63 °FSunny.10 mph39%29.89 "Hg10 mi
2:50 PM63 °FSunny.12 mph42%29.89 "Hg10 mi
2:20 PM63 °FPassing clouds.9 mph39%29.89 "HgN/A
1:50 PM61 °FPassing clouds.9 mph42%29.89 "HgN/A
1:20 PM61 °FPassing clouds.8 mph42%29.92 "HgN/A
12:50 PM63 °FPassing clouds.12 mph37%29.92 "HgN/A
12:20 PM61 °FPassing clouds.8 mph39%29.92 "HgN/A
11:50 AM61 °FPassing clouds.6 mph39%29.92 "HgN/A
11:20 AM59 °FPassing clouds.7 mph45%29.92 "HgN/A
10:50 AM59 °FPassing clouds.6 mph48%29.92 "HgN/A
10:20 AM57 °FPassing clouds.5 mph48%29.92 "HgN/A
9:50 AM57 °FRefreshingly cool.6 mph51%29.92 "HgN/A
9:20 AM55 °FRefreshingly cool.6 mph51%29.92 "HgN/A
8:50 AM54 °FCool.6 mph58%29.92 "HgN/A
8:20 AM54 °FCool.6 mph54%29.92 "HgN/A
7:50 AM52 °FCool.8 mph58%29.92 "HgN/A
7:20 AM52 °FCool.8 mph58%29.92 "HgN/A
6:50 AM50 °FCool.7 mph58%29.92 "HgN/A
6:20 AM50 °FCool.6 mph58%29.92 "HgN/A
5:50 AM48 °FCool.5 mph62%29.92 "HgN/A
5:20 AM46 °FCool.6 mph66%29.92 "HgN/A
4:50 AM43 °FQuite cool.3 mph76%29.92 "HgN/A
4:20 AM43 °FQuite cool.6 mph76%29.92 "HgN/A
Weather by CustomWeather, © 2015

See weather overviewHow to use our weather pages